This demonstration page uses our WeatherBlox Daily Observations layout. Learn more.

Left ArrowRight Arrow

Hourly Observations for April 10, 2022

Temp ( °F °C ) Dew Point ( °F °C ) Humidity (%) Winds ( mph kmh ) Pressure ( in mb ) Visibility ( mi km ) Precip ( " mm )
12:52 am 00:52 Clear 55 12.8 25 -3.9 31 31 SSE 16 26 29.75 1007 10 16 0.00 0.00
1:52 am 01:52 Clear 54 12.2 26 -3.3 34 34 SSE 17 28 29.72 1007 10 16 0.00 0.00
2:52 am 02:52 Clear 54 12.2 27 -2.8 35 35 SSE 18 30 29.69 1006 10 16 0.00 0.00
3:52 am 03:52 Clear 53 11.7 29 -1.7 40 40 SSE 17 28 29.67 1005 10 16 0.00 0.00
4:52 am 04:52 Clear 52 11.1 29 -1.7 41 41 SSE 18 30 29.66 1004 10 16 0.00 0.00
5:52 am 05:52 Clear 51 10.6 30 -1.1 44 44 SSE 18 30 29.65 1004 10 16 0.00 0.00
6:52 am 06:52 Sunny 51 10.6 31 -0.6 46 46 SSE 17 28 29.66 1004 10 16 0.00 0.00
7:52 am 07:52 Sunny 53 11.7 34 1.1 48 48 SSE 16 26 29.67 1005 10 16 0.00 0.00
8:52 am 08:52 Sunny 59 15 38 3.3 46 46 S 17 28 29.65 1004 10 16 0.00 0.00
9:52 am 09:52 Sunny 65 18.3 42 5.6 43 43 S 20 31 29.63 1003 10 16 0.00 0.00
10:52 am 10:52 Sunny 70 21.1 44 6.7 39 39 S 15 24 29.60 1003 10 16 0.00 0.00
11:52 am 11:52 Sunny 74 23.3 46 7.8 37 37 SSE 20 31 29.56 1001 10 16 0.00 0.00
12:52 pm 12:52 Sunny 79 26.1 47 8.3 32 32 S 24 39 29.53 1000 10 16 0.00 0.00
1:52 pm 13:52 Sunny 79 26.1 49 9.4 35 35 S 30 48 29.52 1000 10 16 0.00 0.00
2:52 pm 14:52 Sunny 79 26.1 52 11.1 39 39 S 28 44 29.50 999 10 16 0.00 0.00
3:52 pm 15:52 Sunny 78 25.6 53 11.7 42 42 SW 22 35 29.52 1000 10 16 0.00 0.00
4:52 pm 16:52 Partly Cloudy 76 24.4 54 12.2 47 47 SSW 24 39 29.54 1000 10 16 0.00 0.00
5:52 pm 17:52 Mostly Sunny 74 23.3 54 12.2 50 50 SSW 24 39 29.56 1001 10 16 0.00 0.00
6:52 pm 18:52 Partly Cloudy 73 22.8 53 11.7 50 50 SW 25 41 29.59 1002 10 16 0.00 0.00
7:52 pm 19:52 Cloudy 72 22.2 54 12.2 53 53 SW 20 31 29.62 1003 10 16 0.00 0.00
8:52 pm 20:52 Mostly Cloudy 71 21.7 55 12.8 57 57 SSW 14 22 29.64 1004 10 16 0.00 0.00
9:52 pm 21:52 Mostly Cloudy 69 20.6 55 12.8 61 61 SSW 10 17 29.66 1004 10 16 0.00 0.00
10:52 pm 22:52 Mostly Cloudy 67 19.4 55 12.8 66 66 S 12 19 29.66 1005 10 16 0.00 0.00
11:52 pm 23:52 Partly Cloudy 66 18.9 55 12.8 68 68 S 9 15 29.65 1004 10 16 0.00 0.00

Powered by AerisWeather